| time (UTC) | temp F | wind direction | speed MPH | gust MPH | rain 1hr in | rain 24hr in | rain mn in | humidity % | barometer mb |
| 20260831231557 | 77 | 35 | 6.0 | 13.0 | 0.00 | 0.00 | 0.00 | 68 | 1014.2 |
| 20260831231109 | 77 | 36 | 10.0 | 12.0 | 0.00 | 0.00 | 0.00 | 67 | 1014.2 |
| 20260831230520 | 78 | 34 | 6.0 | 12.0 | 0.00 | 0.00 | 0.00 | 68 | 1014.2 |
| 20260831230112 | 77 | 34 | 7.0 | 11.0 | 0.00 | 0.00 | 0.00 | 67 | 1014.4 |
| 20260831225523 | 78 | 36 | 9.0 | 14.0 | 0.00 | 0.00 | 0.00 | 64 | 1014.4 |
| 20260831225017 | 77 | 35 | 7.0 | 14.0 | 0.00 | 0.00 | 0.00 | 63 | 1014.4 |
| 20260831224610 | 77 | 34 | 9.0 | 14.0 | 0.00 | 0.00 | 0.00 | 63 | 1014.4 |
| 20260831224528 | 77 | 34 | 9.0 | 14.0 | 0.00 | 0.00 | 0.00 | 63 | 1014.4 |
| 20260831224021 | 78 | 36 | 8.0 | 14.0 | 0.00 | 0.00 | 0.00 | 63 | 1014.5 |
| 20260831223555 | 78 | 36 | 10.0 | 14.0 | 0.00 | 0.00 | 0.00 | 65 | 1014.5 |
| 20260831223035 | 78 | 35 | 8.0 | 13.0 | 0.00 | 0.00 | 0.00 | 64 | 1014.6 |
| 20260831222527 | 78 | 35 | 9.0 | 14.0 | 0.00 | 0.00 | 0.00 | 65 | 1014.7 |
| 20260831222100 | 78 | 32 | 5.0 | 14.0 | 0.00 | 0.00 | 0.00 | 65 | 1014.7 |
| 20260831222017 | 78 | 32 | 5.0 | 14.0 | 0.00 | 0.00 | 0.00 | 65 | 1014.7 |
| 20260831221609 | 79 | 38 | 9.0 | 17.0 | 0.00 | 0.00 | 0.00 | 64 | 1014.7 |
| 20260831221021 | 78 | 35 | 10.0 | 17.0 | 0.00 | 0.00 | 0.00 | 64 | 1014.8 |
| 20260831220555 | 79 | 35 | 9.0 | 13.0 | 0.00 | 0.00 | 0.00 | 62 | 1014.8 |
| 20260831220512 | 79 | 35 | 9.0 | 13.0 | 0.00 | 0.00 | 0.00 | 62 | 1014.8 |
| 20260831220055 | 79 | 36 | 9.0 | 13.0 | 0.00 | 0.00 | 0.00 | 62 | 1014.8 |
| 20260831215607 | 80 | 34 | 9.0 | 13.0 | 0.00 | 0.00 | 0.00 | 62 | 1014.7 |
| 20260831215524 | 80 | 34 | 9.0 | 13.0 | 0.00 | 0.00 | 0.00 | 62 | 1014.7 |
| 20260831215037 | 79 | 34 | 7.0 | 16.0 | 0.00 | 0.00 | 0.00 | 65 | 1014.7 |
| 20260831214518 | 78 | 34 | 11.0 | 16.0 | 0.00 | 0.00 | 0.00 | 65 | 1014.7 |
| 20260831214111 | 79 | 35 | 6.0 | 17.0 | 0.00 | 0.00 | 0.00 | 65 | 1014.7 |
| 20260831213604 | 78 | 34 | 11.0 | 16.0 | 0.00 | 0.00 | 0.00 | 65 | 1014.8 |
| 20260831213522 | 78 | 34 | 11.0 | 16.0 | 0.00 | 0.00 | 0.00 | 65 | 1014.8 |
| 20260831213043 | 79 | 35 | 8.0 | 15.0 | 0.00 | 0.00 | 0.00 | 64 | 1014.9 |
| 20260831212535 | 79 | 35 | 10.0 | 15.0 | 0.00 | 0.00 | 0.00 | 64 | 1014.9 |
| 20260831212028 | 79 | 36 | 8.0 | 15.0 | 0.00 | 0.00 | 0.00 | 66 | 1014.9 |
| 20260831211547 | 78 | 36 | 7.0 | 15.0 | 0.00 | 0.00 | 0.00 | 67 | 1014.9 |
| 20260831211041 | 79 | 36 | 9.0 | 13.0 | 0.00 | 0.00 | 0.00 | 64 | 1015.0 |
| 20260831210535 | 79 | 36 | 9.0 | 14.0 | 0.00 | 0.00 | 0.00 | 65 | 1015.0 |
| 20260831210056 | 79 | 35 | 8.0 | 14.0 | 0.00 | 0.00 | 0.00 | 65 | 1015.1 |
| 20260831210013 | 79 | 35 | 8.0 | 14.0 | 0.00 | 0.00 | 0.00 | 65 | 1015.1 |
| 20260831205602 | 79 | 32 | 8.0 | 13.0 | 0.00 | 0.00 | 0.00 | 64 | 1015.2 |
| 20260831205113 | 79 | 36 | 10.0 | 14.0 | 0.00 | 0.00 | 0.00 | 63 | 1015.3 |
| 20260831204529 | 79 | 34 | 9.0 | 14.0 | 0.00 | 0.00 | 0.00 | 64 | 1015.3 |
| 20260831204021 | 79 | 36 | 9.0 | 15.0 | 0.00 | 0.00 | 0.00 | 62 | 1015.2 |
| 20260831203555 | 79 | 36 | 9.0 | 15.0 | 0.00 | 0.00 | 0.00 | 62 | 1015.2 |
| 20260831203057 | 79 | 34 | 7.0 | 15.0 | 0.00 | 0.00 | 0.00 | 62 | 1015.2 |
| 20260831202528 | 79 | 35 | 11.0 | 15.0 | 0.00 | 0.00 | 0.00 | 62 | 1015.3 |
| 20260831202022 | 79 | 34 | 8.0 | 15.0 | 0.00 | 0.00 | 0.00 | 62 | 1015.2 |
| 20260831201606 | 79 | 34 | 9.0 | 13.0 | 0.00 | 0.00 | 0.00 | 62 | 1015.2 |
| 20260831201524 | 79 | 34 | 9.0 | 13.0 | 0.00 | 0.00 | 0.00 | 62 | 1015.2 |
| 20260831201017 | 80 | 34 | 7.0 | 12.0 | 0.00 | 0.00 | 0.00 | 62 | 1015.3 |
| 20260831200514 | 80 | 35 | 7.0 | 12.0 | 0.00 | 0.00 | 0.00 | 62 | 1015.3 |
| 20260831200013 | 79 | 35 | 7.0 | 12.0 | 0.00 | 0.00 | 0.00 | 63 | 1015.3 |
| 20260831195602 | 79 | 36 | 6.0 | 13.0 | 0.00 | 0.00 | 0.00 | 64 | 1015.3 |
| 20260831195520 | 79 | 36 | 6.0 | 13.0 | 0.00 | 0.00 | 0.00 | 64 | 1015.3 |
| 20260831195013 | 80 | 35 | 6.0 | 13.0 | 0.00 | 0.00 | 0.00 | 64 | 1015.3 |
| 20260831194533 | 79 | 37 | 7.0 | 13.0 | 0.00 | 0.00 | 0.00 | 65 | 1015.3 |
| 20260831194106 | 79 | 36 | 8.0 | 12.0 | 0.00 | 0.00 | 0.00 | 64 | 1015.4 |
| 20260831194024 | 79 | 36 | 8.0 | 12.0 | 0.00 | 0.00 | 0.00 | 64 | 1015.4 |
| 20260831193518 | 79 | 35 | 7.0 | 11.0 | 0.00 | 0.00 | 0.00 | 65 | 1015.4 |
| 20260831193017 | 80 | 32 | 6.0 | 13.0 | 0.00 | 0.00 | 0.00 | 65 | 1015.5 |
| 20260831192514 | 78 | 34 | 9.0 | 13.0 | 0.00 | 0.00 | 0.00 | 67 | 1015.4 |
| 20260831192104 | 79 | 34 | 9.0 | 11.0 | 0.00 | 0.00 | 0.00 | 66 | 1015.4 |
| 20260831192022 | 79 | 34 | 9.0 | 11.0 | 0.00 | 0.00 | 0.00 | 66 | 1015.4 |
| 20260831191522 | 79 | 35 | 7.0 | 11.0 | 0.00 | 0.00 | 0.00 | 66 | 1015.5 |
| 20260831191021 | 79 | 37 | 6.0 | 10.0 | 0.00 | 0.00 | 0.00 | 66 | 1015.4 |
| 20260831190514 | 79 | 34 | 6.0 | 12.0 | 0.00 | 0.00 | 0.00 | 66 | 1015.5 |
| 20260831190035 | 79 | 36 | 6.0 | 12.0 | 0.00 | 0.00 | 0.00 | 68 | 1015.5 |
| 20260831185606 | 78 | 34 | 7.0 | 11.0 | 0.00 | 0.00 | 0.00 | 67 | 1015.5 |
| 20260831185524 | 78 | 34 | 7.0 | 11.0 | 0.00 | 0.00 | 0.00 | 67 | 1015.5 |
| 20260831185057 | 79 | 35 | 7.0 | 11.0 | 0.00 | 0.00 | 0.00 | 67 | 1015.4 |
| 20260831184553 | 79 | 34 | 7.0 | 13.0 | 0.00 | 0.00 | 0.00 | 66 | 1015.4 |
| 20260831184045 | 80 | 34 | 7.0 | 10.0 | 0.00 | 0.00 | 0.00 | 65 | 1015.5 |
| 20260831183540 | 79 | 35 | 6.0 | 12.0 | 0.00 | 0.00 | 0.00 | 66 | 1015.5 |
| 20260831183112 | 80 | 34 | 9.0 | 12.0 | 0.00 | 0.00 | 0.00 | 66 | 1015.5 |
| 20260831183030 | 80 | 34 | 9.0 | 12.0 | 0.00 | 0.00 | 0.00 | 66 | 1015.5 |
| 20260831182543 | 80 | 35 | 6.0 | 12.0 | 0.00 | 0.00 | 0.00 | 67 | 1015.5 |
| 20260831182055 | 80 | 35 | 6.0 | 14.0 | 0.00 | 0.00 | 0.00 | 67 | 1015.5 |
| 20260831181535 | 78 | 34 | 9.0 | 14.0 | 0.00 | 0.00 | 0.00 | 67 | 1015.5 |
| 20260831181107 | 79 | 35 | 6.0 | 11.0 | 0.00 | 0.00 | 0.00 | 67 | 1015.4 |
| 20260831180518 | 79 | 32 | 6.0 | 11.0 | 0.00 | 0.00 | 0.00 | 67 | 1015.4 |
| 20260831180111 | 79 | 34 | 4.0 | 9.0 | 0.00 | 0.00 | 0.00 | 67 | 1015.4 |
| 20260831175602 | 79 | 34 | 6.0 | 9.0 | 0.00 | 0.00 | 0.00 | 67 | 1015.4 |
| 20260831175014 | 79 | 32 | 3.0 | 9.0 | 0.00 | 0.00 | 0.00 | 67 | 1015.3 |
| 20260831174534 | 78 | 35 | 4.0 | 10.0 | 0.00 | 0.00 | 0.00 | 67 | 1015.4 |
| 20260831174048 | 79 | 36 | 5.0 | 10.0 | 0.00 | 0.00 | 0.00 | 67 | 1015.4 |
| 20260831173543 | 78 | 35 | 3.0 | 10.0 | 0.00 | 0.00 | 0.00 | 69 | 1015.4 |
| 20260831173043 | 77 | 36 | 5.0 | 10.0 | 0.00 | 0.00 | 0.00 | 69 | 1015.4 |
| 20260831172535 | 78 | 35 | 3.0 | 9.0 | 0.00 | 0.00 | 0.00 | 70 | 1015.4 |
| 20260831172106 | 77 | 35 | 3.0 | 8.0 | 0.00 | 0.00 | 0.00 | 71 | 1015.4 |
| 20260831172023 | 77 | 35 | 3.0 | 8.0 | 0.00 | 0.00 | 0.00 | 71 | 1015.4 |
| 20260831171605 | 77 | 34 | 4.0 | 8.0 | 0.00 | 0.00 | 0.00 | 70 | 1015.3 |
| 20260831171015 | 76 | 34 | 5.0 | 7.0 | 0.00 | 0.00 | 0.00 | 71 | 1015.3 |
| 20260831170528 | 77 | 35 | 2.0 | 5.0 | 0.00 | 0.00 | 0.00 | 70 | 1015.3 |
| 20260831170026 | 76 | 36 | 2.0 | 7.0 | 0.00 | 0.00 | 0.00 | 72 | 1015.3 |
| 20260831165519 | 76 | 35 | 5.0 | 7.0 | 0.00 | 0.00 | 0.00 | 72 | 1015.2 |
| 20260831165012 | 76 | 34 | 1.0 | 6.0 | 0.00 | 0.00 | 0.00 | 74 | 1015.3 |
| 20260831164555 | 75 | 35 | 1.0 | 6.0 | 0.00 | 0.00 | 0.00 | 74 | 1015.3 |
| 20260831164512 | 75 | 35 | 1.0 | 6.0 | 0.00 | 0.00 | 0.00 | 74 | 1015.3 |
| 20260831164047 | 74 | 35 | 2.0 | 6.0 | 0.00 | 0.00 | 0.00 | 74 | 1015.3 |
| 20260831163540 | 75 | 34 | 4.0 | 6.0 | 0.00 | 0.00 | 0.00 | 75 | 1015.1 |
| 20260831163102 | 74 | 35 | 1.0 | 5.0 | 0.00 | 0.00 | 0.00 | 75 | 1015.2 |
| 20260831162512 | 74 | 34 | 2.0 | 4.0 | 0.00 | 0.00 | 0.00 | 76 | 1015.1 |
| 20260831162105 | 74 | 36 | 2.0 | 4.0 | 0.00 | 0.00 | 0.00 | 77 | 1015.1 |
| 20260831161543 | 74 | 34 | 1.0 | 6.0 | 0.00 | 0.00 | 0.00 | 78 | 1015.1 |
| 20260831161015 | 73 | 35 | 1.0 | 6.0 | 0.00 | 0.00 | 0.00 | 79 | 1015.1 |
| 20260831160528 | 73 | 35 | 4.0 | 6.0 | 0.00 | 0.00 | 0.00 | 80 | 1015.1 |
| 20260831160049 | 72 | 32 | 4.0 | 6.0 | 0.00 | 0.00 | 0.00 | 80 | 1015.2 |
| 20260831155543 | 72 | 35 | 4.0 | 6.0 | 0.00 | 0.00 | 0.00 | 80 | 1015.2 |
| 20260831155035 | 72 | 35 | 2.0 | 3.0 | 0.00 | 0.00 | 0.00 | 80 | 1015.2 |
| 20260831154515 | 73 | 34 | 1.0 | 3.0 | 0.00 | 0.00 | 0.00 | 80 | 1015.2 |
| 20260831154110 | 72 | 35 | 0.0 | 2.0 | 0.00 | 0.00 | 0.00 | 81 | 1015.2 |
| 20260831154027 | 72 | 35 | 0.0 | 2.0 | 0.00 | 0.00 | 0.00 | 81 | 1015.2 |
| 20260831153520 | 72 | 35 | 0.0 | 1.0 | 0.00 | 0.00 | 0.00 | 81 | 1015.2 |
| 20260831153022 | 71 | 32 | 0.0 | 1.0 | 0.00 | 0.00 | 0.00 | 82 | 1015.1 |
| 20260831152617 | 71 | 36 | 0.0 | 3.0 | 0.00 | 0.00 | 0.00 | 83 | 1015.1 |
| 20260831152534 | 71 | 36 | 0.0 | 3.0 | 0.00 | 0.00 | 0.00 | 83 | 1015.1 |
| 20260831152050 | 71 | 34 | 1.0 | 4.0 | 0.00 | 0.00 | 0.00 | 83 | 1015.2 |
| 20260831151549 | 71 | 34 | 2.0 | 8.0 | 0.00 | 0.00 | 0.00 | 83 | 1015.1 |
| 20260831151041 | 71 | 36 | 3.0 | 8.0 | 0.00 | 0.00 | 0.00 | 83 | 1015.1 |
| 20260831150532 | 71 | 35 | 4.0 | 7.0 | 0.00 | 0.00 | 0.00 | 83 | 1015.1 |
| 20260831150053 | 71 | 36 | 3.0 | 7.0 | 0.00 | 0.00 | 0.00 | 83 | 1015.0 |
| 20260831145525 | 71 | 35 | 4.0 | 8.0 | 0.00 | 0.00 | 0.00 | 84 | 1015.0 |
| 20260831145037 | 71 | 34 | 2.0 | 6.0 | 0.00 | 0.00 | 0.00 | 84 | 1015.0 |
| 20260831144537 | 71 | 36 | 1.0 | 4.0 | 0.00 | 0.00 | 0.00 | 84 | 1014.9 |
| 20260831144109 | 71 | 35 | 3.0 | 5.0 | 0.00 | 0.00 | 0.00 | 84 | 1014.8 |
| 20260831143520 | 71 | 36 | 0.0 | 3.0 | 0.00 | 0.00 | 0.00 | 84 | 1014.8 |
| 20260831143020 | 71 | 35 | 1.0 | 3.0 | 0.00 | 0.00 | 0.00 | 84 | 1014.8 |
| 20260831142515 | 70 | 37 | 0.0 | 2.0 | 0.00 | 0.00 | 0.00 | 84 | 1014.8 |
| 20260831142029 | 70 | 34 | 1.0 | 2.0 | 0.00 | 0.00 | 0.00 | 84 | 1014.7 |
| 20260831141547 | 70 | 35 | 1.0 | 2.0 | 0.00 | 0.00 | 0.00 | 85 | 1014.6 |
| 20260831141041 | 70 | 34 | 0.0 | 2.0 | 0.00 | 0.00 | 0.00 | 85 | 1014.4 |
| 20260831140555 | 70 | 35 | 0.0 | 2.0 | 0.00 | 0.00 | 0.00 | 85 | 1014.4 |
| 20260831140054 | 70 | 36 | 0.0 | 2.0 | 0.00 | 0.00 | 0.00 | 86 | 1014.4 |
| 20260831135547 | 70 | 36 | 1.0 | 2.0 | 0.00 | 0.00 | 0.00 | 86 | 1014.2 |
| 20260831135040 | 70 | 36 | 0.0 | 2.0 | 0.00 | 0.00 | 0.00 | 86 | 1014.3 |
| 20260831134614 | 70 | 34 | 0.0 | 2.0 | 0.00 | 0.00 | 0.00 | 86 | 1014.2 |
| 20260831134531 | 70 | 34 | 0.0 | 2.0 | 0.00 | 0.00 | 0.00 | 86 | 1014.2 |
| 20260831134045 | 70 | 36 | 0.0 | 2.0 | 0.00 | 0.00 | 0.00 | 85 | 1014.1 |
| 20260831133617 | 70 | 36 | 1.0 | 2.0 | 0.00 | 0.00 | 0.00 | 86 | 1014.1 |
| 20260831133057 | 70 | 34 | 0.0 | 2.0 | 0.00 | 0.00 | 0.00 | 86 | 1014.0 |
| 20260831132528 | 70 | 38 | 0.0 | 2.0 | 0.00 | 0.00 | 0.00 | 86 | 1014.0 |
| 20260831132023 | 70 | 35 | 0.0 | 2.0 | 0.00 | 0.00 | 0.00 | 86 | 1013.9 |
| 20260831131523 | 70 | 35 | 0.0 | 2.0 | 0.00 | 0.00 | 0.00 | 87 | 1013.9 |
| 20260831131116 | 69 | 32 | 0.0 | 2.0 | 0.00 | 0.00 | 0.00 | 87 | 1013.9 |
| 20260831131034 | 69 | 32 | 0.0 | 2.0 | 0.00 | 0.00 | 0.00 | 87 | 1013.9 |
| 20260831130547 | 69 | 32 | 1.0 | 2.0 | 0.00 | 0.00 | 0.00 | 87 | 1013.9 |
| 20260831130109 | 69 | 35 | 0.0 | 0.0 | 0.00 | 0.00 | 0.00 | 87 | 1013.9 |
| 20260831125519 | 69 | 32 | 0.0 | 0.0 | 0.00 | 0.00 | 0.00 | 87 | 1013.9 |
| 20260831125112 | 69 | 34 | 0.0 | 1.0 | 0.00 | 0.00 | 0.00 | 87 | 1013.9 |
| 20260831124548 | 69 | 35 | 0.0 | 2.0 | 0.00 | 0.00 | 0.00 | 87 | 1013.9 |
| 20260831124102 | 69 | 35 | 1.0 | 2.0 | 0.00 | 0.00 | 0.00 | 87 | 1013.9 |
| 20260831124020 | 69 | 35 | 1.0 | 2.0 | 0.00 | 0.00 | 0.00 | 87 | 1013.9 |
| 20260831123609 | 69 | 35 | 1.0 | 2.0 | 0.00 | 0.00 | 0.00 | 87 | 1013.9 |
| 20260831123526 | 69 | 35 | 1.0 | 2.0 | 0.00 | 0.00 | 0.00 | 87 | 1013.9 |
| 20260831123047 | 69 | 35 | 0.0 | 2.0 | 0.00 | 0.00 | 0.00 | 88 | 1014.0 |
| 20260831122539 | 69 | 35 | 0.0 | 2.0 | 0.00 | 0.00 | 0.00 | 88 | 1013.8 |
| 20260831122051 | 69 | 34 | 0.0 | 3.0 | 0.00 | 0.00 | 0.00 | 88 | 1013.9 |
| 20260831121528 | 69 | 34 | 2.0 | 3.0 | 0.00 | 0.00 | 0.00 | 88 | 1013.9 |
| 20260831121101 | 69 | 35 | 1.0 | 3.0 | 0.00 | 0.00 | 0.00 | 89 | 1013.9 |
| 20260831121018 | 69 | 35 | 1.0 | 3.0 | 0.00 | 0.00 | 0.00 | 89 | 1013.9 |
| 20260831120532 | 69 | 35 | 2.0 | 3.0 | 0.00 | 0.00 | 0.00 | 89 | 1013.9 |
| 20260831120052 | 69 | 35 | 2.0 | 3.0 | 0.00 | 0.00 | 0.00 | 89 | 1013.9 |
| 20260831115524 | 69 | 35 | 0.0 | 3.0 | 0.00 | 0.00 | 0.00 | 89 | 1013.9 |
| 20260831115021 | 69 | 38 | 1.0 | 3.0 | 0.00 | 0.00 | 0.00 | 89 | 1013.8 |
| 20260831114559 | 69 | 35 | 2.0 | 3.0 | 0.00 | 0.00 | 0.00 | 89 | 1013.8 |
| 20260831114516 | 69 | 35 | 2.0 | 3.0 | 0.00 | 0.00 | 0.00 | 89 | 1013.8 |
| 20260831114035 | 69 | 36 | 1.0 | 4.0 | 0.00 | 0.00 | 0.00 | 89 | 1013.9 |
| 20260831113527 | 69 | 34 | 2.0 | 4.0 | 0.00 | 0.00 | 0.00 | 89 | 1013.9 |
| 20260831113028 | 69 | 35 | 1.0 | 3.0 | 0.00 | 0.00 | 0.00 | 89 | 1013.9 |
| 20260831112603 | 69 | 36 | 1.0 | 3.0 | 0.00 | 0.00 | 0.00 | 89 | 1013.9 |
| 20260831112520 | 69 | 36 | 1.0 | 3.0 | 0.00 | 0.00 | 0.00 | 89 | 1013.9 |
| 20260831112109 | 69 | 34 | 1.0 | 2.0 | 0.00 | 0.00 | 0.00 | 89 | 1013.9 |
| 20260831111609 | 69 | 35 | 1.0 | 2.0 | 0.00 | 0.00 | 0.00 | 89 | 1013.9 |
| 20260831111040 | 69 | 35 | 1.0 | 3.0 | 0.00 | 0.00 | 0.00 | 89 | 1014.0 |
| 20260831110531 | 69 | 34 | 0.0 | 3.0 | 0.00 | 0.00 | 0.00 | 88 | 1014.1 |
| 20260831110050 | 69 | 38 | 2.0 | 3.0 | 0.00 | 0.00 | 0.00 | 88 | 1014.0 |
| 20260831105523 | 69 | 34 | 2.0 | 4.0 | 0.00 | 0.00 | 0.00 | 88 | 1014.0 |
| 20260831105037 | 69 | 34 | 3.0 | 4.0 | 0.00 | 0.00 | 0.00 | 88 | 1014.0 |
| 20260831104537 | 69 | 34 | 0.0 | 2.0 | 0.00 | 0.00 | 0.00 | 88 | 1014.0 |
| 20260831104110 | 69 | 36 | 0.0 | 2.0 | 0.00 | 0.00 | 0.00 | 88 | 1014.1 |
| 20260831104027 | 69 | 36 | 0.0 | 2.0 | 0.00 | 0.00 | 0.00 | 88 | 1014.1 |
| 20260831103601 | 69 | 35 | 1.0 | 3.0 | 0.00 | 0.00 | 0.00 | 88 | 1014.1 |
| 20260831103101 | 69 | 35 | 1.0 | 4.0 | 0.00 | 0.00 | 0.00 | 88 | 1014.1 |
| 20260831102613 | 69 | 35 | 2.0 | 4.0 | 0.00 | 0.00 | 0.00 | 88 | 1014.0 |
| 20260831102104 | 69 | 32 | 1.0 | 4.0 | 0.00 | 0.00 | 0.00 | 88 | 1014.1 |
| 20260831102022 | 69 | 32 | 1.0 | 4.0 | 0.00 | 0.00 | 0.00 | 88 | 1014.1 |
| 20260831101522 | 69 | 35 | 2.0 | 5.0 | 0.00 | 0.00 | 0.00 | 88 | 1014.1 |
| 20260831101036 | 69 | 35 | 3.0 | 5.0 | 0.00 | 0.00 | 0.00 | 88 | 1014.0 |
| 20260831100608 | 69 | 32 | 2.0 | 5.0 | 0.00 | 0.00 | 0.00 | 87 | 1014.0 |
| 20260831100045 | 70 | 36 | 2.0 | 5.0 | 0.00 | 0.00 | 0.00 | 87 | 1014.0 |
| 20260831095538 | 69 | 34 | 2.0 | 4.0 | 0.00 | 0.00 | 0.00 | 87 | 1014.0 |
| 20260831095111 | 69 | 36 | 3.0 | 4.0 | 0.00 | 0.00 | 0.00 | 87 | 1014.0 |
| 20260831094544 | 70 | 38 | 2.0 | 5.0 | 0.00 | 0.00 | 0.00 | 87 | 1014.0 |
| 20260831094021 | 69 | 35 | 3.0 | 5.0 | 0.00 | 0.00 | 0.00 | 87 | 1014.0 |
| 20260831093515 | 70 | 36 | 2.0 | 5.0 | 0.00 | 0.00 | 0.00 | 87 | 1014.0 |
| 20260831093055 | 70 | 37 | 2.0 | 4.0 | 0.00 | 0.00 | 0.00 | 88 | 1014.1 |
| 20260831092549 | 69 | 34 | 3.0 | 4.0 | 0.00 | 0.00 | 0.00 | 88 | 1014.1 |
| 20260831092021 | 69 | 38 | 3.0 | 4.0 | 0.00 | 0.00 | 0.00 | 88 | 1014.0 |
| 20260831091521 | 69 | 32 | 2.0 | 5.0 | 0.00 | 0.00 | 0.00 | 88 | 1014.1 |
| 20260831091054 | 69 | 36 | 4.0 | 5.0 | 0.00 | 0.00 | 0.00 | 88 | 1014.0 |
| 20260831090546 | 70 | 35 | 1.0 | 5.0 | 0.00 | 0.00 | 0.00 | 88 | 1014.1 |
| 20260831090104 | 69 | 35 | 2.0 | 6.0 | 0.00 | 0.00 | 0.00 | 89 | 1014.1 |
| 20260831090022 | 69 | 35 | 2.0 | 6.0 | 0.00 | 0.00 | 0.00 | 89 | 1014.1 |
| 20260831085535 | 69 | 34 | 4.0 | 6.0 | 0.00 | 0.00 | 0.00 | 89 | 1014.1 |
| 20260831085108 | 69 | 34 | 3.0 | 5.0 | 0.00 | 0.00 | 0.00 | 89 | 1014.1 |
| 20260831084607 | 69 | 35 | 4.0 | 5.0 | 0.00 | 0.00 | 0.00 | 89 | 1014.1 |
| 20260831084038 | 69 | 36 | 1.0 | 3.0 | 0.00 | 0.00 | 0.00 | 89 | 1014.1 |
| 20260831083552 | 69 | 36 | 2.0 | 4.0 | 0.00 | 0.00 | 0.00 | 89 | 1014.1 |
| 20260831083031 | 69 | 38 | 3.0 | 5.0 | 0.00 | 0.00 | 0.00 | 89 | 1014.1 |
| 20260831082604 | 69 | 35 | 1.0 | 4.0 | 0.00 | 0.00 | 0.00 | 89 | 1014.1 |
| 20260831082522 | 69 | 35 | 1.0 | 4.0 | 0.00 | 0.00 | 0.00 | 89 | 1014.1 |
| 20260831082035 | 69 | 35 | 1.0 | 4.0 | 0.00 | 0.00 | 0.00 | 89 | 1014.1 |
| 20260831081515 | 69 | 38 | 1.0 | 3.0 | 0.00 | 0.00 | 0.00 | 88 | 1014.1 |
| 20260831081029 | 69 | 35 | 0.0 | 3.0 | 0.00 | 0.00 | 0.00 | 89 | 1014.1 |
| 20260831080542 | 69 | 35 | 1.0 | 3.0 | 0.00 | 0.00 | 0.00 | 89 | 1014.1 |
| 20260831080104 | 69 | 35 | 0.0 | 0.0 | 0.00 | 0.00 | 0.00 | 88 | 1014.2 |
| 20260831075536 | 69 | 36 | 0.0 | 0.0 | 0.00 | 0.00 | 0.00 | 89 | 1014.3 |
| 20260831075030 | 69 | 34 | 0.0 | 0.0 | 0.00 | 0.00 | 0.00 | 88 | 1014.3 |
| 20260831074529 | 68 | 34 | 0.0 | 0.0 | 0.00 | 0.00 | 0.00 | 88 | 1014.2 |
| 20260831074022 | 68 | 36 | 0.0 | 0.0 | 0.00 | 0.00 | 0.00 | 88 | 1014.2 |
| 20260831073521 | 69 | 35 | 0.0 | 0.0 | 0.00 | 0.00 | 0.00 | 88 | 1014.2 |
| 20260831073021 | 69 | 37 | 0.0 | 0.0 | 0.00 | 0.00 | 0.00 | 88 | 1014.2 |
| 20260831072555 | 69 | 34 | 0.0 | 0.0 | 0.00 | 0.00 | 0.00 | 89 | 1014.1 |
| 20260831072104 | 69 | 36 | 0.0 | 0.0 | 0.00 | 0.00 | 0.00 | 88 | 1014.1 |
| 20260831072022 | 69 | 36 | 0.0 | 0.0 | 0.00 | 0.00 | 0.00 | 88 | 1014.1 |
| 20260831071522 | 69 | 36 | 0.0 | 0.0 | 0.00 | 0.00 | 0.00 | 89 | 1014.2 |
| 20260831071116 | 69 | 34 | 0.0 | 0.0 | 0.00 | 0.00 | 0.00 | 89 | 1014.2 |
| 20260831071033 | 69 | 34 | 0.0 | 0.0 | 0.00 | 0.00 | 0.00 | 89 | 1014.2 |
| 20260831070527 | 69 | 32 | 0.0 | 0.0 | 0.00 | 0.00 | 0.00 | 88 | 1014.2 |
| 20260831070048 | 69 | 35 | 0.0 | 0.0 | 0.00 | 0.00 | 0.00 | 89 | 1014.2 |
| 20260831065519 | 69 | 35 | 0.0 | 1.0 | 0.00 | 0.00 | 0.00 | 88 | 1014.2 |
| 20260831065111 | 69 | 35 | 0.0 | 1.0 | 0.00 | 0.00 | 0.00 | 87 | 1014.2 |
| 20260831064527 | 69 | 38 | 0.0 | 1.0 | 0.00 | 0.00 | 0.00 | 87 | 1014.2 |
| 20260831064100 | 69 | 35 | 0.0 | 1.0 | 0.00 | 0.00 | 0.00 | 87 | 1014.1 |
| 20260831063612 | 70 | 36 | 0.0 | 0.0 | 0.00 | 0.00 | 0.00 | 87 | 1014.2 |
| 20260831063530 | 70 | 36 | 0.0 | 0.0 | 0.00 | 0.00 | 0.00 | 87 | 1014.2 |
| 20260831063028 | 70 | 34 | 0.0 | 0.0 | 0.00 | 0.00 | 0.00 | 87 | 1014.1 |
| 20260831062523 | 70 | 36 | 0.0 | 0.0 | 0.00 | 0.00 | 0.00 | 86 | 1014.1 |
| 20260831062020 | 70 | 35 | 0.0 | 0.0 | 0.00 | 0.00 | 0.00 | 86 | 1014.1 |
| 20260831061521 | 70 | 32 | 0.0 | 0.0 | 0.00 | 0.00 | 0.00 | 86 | 1014.0 |
| 20260831061034 | 70 | 32 | 0.0 | 0.0 | 0.00 | 0.00 | 0.00 | 86 | 1014.0 |
| 20260831060603 | 70 | 35 | 0.0 | 0.0 | 0.00 | 0.00 | 0.00 | 86 | 1013.9 |
| 20260831060521 | 70 | 35 | 0.0 | 0.0 | 0.00 | 0.00 | 0.00 | 86 | 1013.9 |
| 20260831060021 | 70 | 36 | 0.0 | 0.0 | 0.00 | 0.00 | 0.00 | 86 | 1013.9 |
| 20260831055535 | 70 | 35 | 0.0 | 0.0 | 0.00 | 0.00 | 0.00 | 87 | 1014.0 |
| 20260831055106 | 71 | 36 | 0.0 | 0.0 | 0.00 | 0.00 | 0.00 | 87 | 1013.9 |
| 20260831054607 | 70 | 37 | 0.0 | 0.0 | 0.00 | 0.00 | 0.00 | 87 | 1013.9 |
| 20260831054018 | 70 | 37 | 0.0 | 0.0 | 0.00 | 0.00 | 0.00 | 87 | 1014.0 |
| 20260831053613 | 70 | 34 | 0.0 | 0.0 | 0.00 | 0.00 | 0.00 | 86 | 1014.0 |
| 20260831053530 | 70 | 34 | 0.0 | 0.0 | 0.00 | 0.00 | 0.00 | 86 | 1014.0 |
| 20260831053027 | 71 | 35 | 0.0 | 0.0 | 0.00 | 0.00 | 0.00 | 86 | 1014.1 |
| 20260831052601 | 71 | 36 | 0.0 | 0.0 | 0.00 | 0.00 | 0.00 | 87 | 1014.1 |
| 20260831052518 | 71 | 36 | 0.0 | 0.0 | 0.00 | 0.00 | 0.00 | 87 | 1014.1 |
| 20260831052032 | 71 | 34 | 0.0 | 0.0 | 0.00 | 0.00 | 0.00 | 86 | 1014.0 |
| 20260831051553 | 71 | 36 | 0.0 | 0.0 | 0.00 | 0.00 | 0.00 | 87 | 1014.0 |
| 20260831051025 | 71 | 34 | 0.0 | 2.0 | 0.00 | 0.00 | 0.00 | 86 | 1014.1 |
| 20260831050541 | 71 | 35 | 1.0 | 2.0 | 0.00 | 0.00 | 0.00 | 86 | 1014.1 |
| 20260831050019 | 71 | 36 | 0.0 | 2.0 | 0.00 | 0.00 | 0.00 | 86 | 1014.0 |
| 20260831045613 | 71 | 35 | 1.0 | 4.0 | 0.00 | 0.00 | 0.00 | 86 | 1014.0 |
| 20260831045105 | 71 | 35 | 2.0 | 6.0 | 0.00 | 0.00 | 0.00 | 87 | 1014.0 |
| 20260831045022 | 71 | 35 | 2.0 | 6.0 | 0.00 | 0.00 | 0.00 | 87 | 1014.0 |
| 20260831044523 | 71 | 35 | 3.0 | 6.0 | 0.00 | 0.00 | 0.00 | 86 | 1014.0 |
| 20260831044017 | 71 | 34 | 3.0 | 5.0 | 0.00 | 0.00 | 0.00 | 86 | 1013.9 |
| 20260831043551 | 71 | 35 | 3.0 | 4.0 | 0.00 | 0.00 | 0.00 | 86 | 1013.9 |
| 20260831043027 | 72 | 35 | 2.0 | 3.0 | 0.00 | 0.00 | 0.00 | 86 | 1014.0 |
| 20260831042520 | 72 | 35 | 1.0 | 6.0 | 0.00 | 0.00 | 0.00 | 85 | 1013.9 |
| 20260831042033 | 72 | 35 | 3.0 | 6.0 | 0.00 | 0.00 | 0.00 | 85 | 1013.8 |
| 20260831041626 | 72 | 38 | 3.0 | 4.0 | 0.00 | 0.00 | 0.00 | 85 | 1013.7 |
| 20260831041016 | 72 | 36 | 3.0 | 4.0 | 0.00 | 0.00 | 0.00 | 85 | 1013.7 |
| 20260831040610 | 72 | 35 | 3.0 | 6.0 | 0.00 | 0.00 | 0.00 | 85 | 1013.7 |
| 20260831040048 | 72 | 34 | 3.0 | 7.0 | 0.00 | 0.00 | 0.00 | 85 | 1013.7 |
| 20260831035600 | 72 | 35 | 4.0 | 7.0 | 0.00 | 0.00 | 0.00 | 85 | 1013.6 |
| 20260831035518 | 72 | 35 | 4.0 | 7.0 | 0.00 | 0.00 | 0.00 | 85 | 1013.6 |
| 20260831035111 | 72 | 35 | 4.0 | 7.0 | 0.00 | 0.00 | 0.00 | 85 | 1013.5 |
| 20260831034529 | 72 | 35 | 3.0 | 7.0 | 0.00 | 0.00 | 0.00 | 85 | 1013.4 |
| 20260831034042 | 72 | 34 | 4.0 | 5.0 | 0.00 | 0.00 | 0.00 | 85 | 1013.4 |
| 20260831033536 | 72 | 34 | 3.0 | 5.0 | 0.00 | 0.00 | 0.00 | 85 | 1013.3 |
| 20260831033035 | 72 | 34 | 4.0 | 5.0 | 0.00 | 0.00 | 0.00 | 85 | 1013.3 |
| 20260831032527 | 72 | 34 | 3.0 | 6.0 | 0.00 | 0.00 | 0.00 | 85 | 1013.3 |
| 20260831032020 | 72 | 34 | 3.0 | 7.0 | 0.00 | 0.00 | 0.00 | 85 | 1013.2 |
| 20260831031543 | 72 | 36 | 3.0 | 7.0 | 0.00 | 0.00 | 0.00 | 85 | 1013.1 |
| 20260831031056 | 72 | 32 | 2.0 | 6.0 | 0.00 | 0.00 | 0.00 | 85 | 1013.0 |
| 20260831031013 | 72 | 32 | 2.0 | 6.0 | 0.00 | 0.00 | 0.00 | 85 | 1013.0 |
| 20260831030548 | 72 | 38 | 3.0 | 6.0 | 0.00 | 0.00 | 0.00 | 84 | 1013.0 |
| 20260831030048 | 72 | 34 | 4.0 | 6.0 | 0.00 | 0.00 | 0.00 | 84 | 1013.0 |
| 20260831025601 | 72 | 35 | 3.0 | 6.0 | 0.00 | 0.00 | 0.00 | 84 | 1013.0 |
| 20260831025519 | 72 | 35 | 3.0 | 6.0 | 0.00 | 0.00 | 0.00 | 84 | 1013.0 |
| 20260831025053 | 72 | 35 | 3.0 | 5.0 | 0.00 | 0.00 | 0.00 | 84 | 1013.0 |
| 20260831024530 | 72 | 34 | 3.0 | 7.0 | 0.00 | 0.00 | 0.00 | 84 | 1013.0 |
| 20260831024104 | 72 | 35 | 3.0 | 8.0 | 0.00 | 0.00 | 0.00 | 84 | 1013.0 |
| 20260831024022 | 72 | 35 | 3.0 | 8.0 | 0.00 | 0.00 | 0.00 | 84 | 1013.0 |
| 20260831023536 | 73 | 34 | 5.0 | 8.0 | 0.00 | 0.00 | 0.00 | 83 | 1012.9 |
| 20260831023037 | 73 | 35 | 6.0 | 8.0 | 0.00 | 0.00 | 0.00 | 82 | 1012.9 |
| 20260831022549 | 73 | 35 | 6.0 | 8.0 | 0.00 | 0.00 | 0.00 | 82 | 1012.8 |
| 20260831022102 | 74 | 35 | 3.0 | 7.0 | 0.00 | 0.00 | 0.00 | 81 | 1012.7 |
| 20260831022020 | 74 | 35 | 3.0 | 7.0 | 0.00 | 0.00 | 0.00 | 81 | 1012.7 |
| 20260831021521 | 74 | 37 | 4.0 | 7.0 | 0.00 | 0.00 | 0.00 | 80 | 1012.7 |
| 20260831021035 | 74 | 35 | 4.0 | 8.0 | 0.00 | 0.00 | 0.00 | 79 | 1012.6 |
| 20260831020528 | 75 | 35 | 4.0 | 7.0 | 0.00 | 0.00 | 0.00 | 78 | 1012.6 |
| 20260831020048 | 75 | 34 | 4.0 | 5.0 | 0.00 | 0.00 | 0.00 | 78 | 1012.5 |
| 20260831015601 | 75 | 36 | 4.0 | 6.0 | 0.00 | 0.00 | 0.00 | 77 | 1012.4 |
| 20260831015519 | 75 | 36 | 4.0 | 6.0 | 0.00 | 0.00 | 0.00 | 77 | 1012.4 |
| 20260831015112 | 75 | 34 | 4.0 | 6.0 | 0.00 | 0.00 | 0.00 | 77 | 1012.4 |
| 20260831015030 | 75 | 34 | 4.0 | 6.0 | 0.00 | 0.00 | 0.00 | 77 | 1012.4 |
| 20260831014528 | 75 | 35 | 4.0 | 7.0 | 0.00 | 0.00 | 0.00 | 77 | 1012.5 |
| 20260831014022 | 76 | 35 | 4.0 | 8.0 | 0.00 | 0.00 | 0.00 | 77 | 1012.5 |
| 20260831013515 | 76 | 34 | 4.0 | 8.0 | 0.00 | 0.00 | 0.00 | 74 | 1012.5 |
| 20260831013035 | 76 | 35 | 5.0 | 9.0 | 0.00 | 0.00 | 0.00 | 74 | 1012.5 |
| 20260831012608 | 76 | 35 | 5.0 | 10.0 | 0.00 | 0.00 | 0.00 | 74 | 1012.4 |
| 20260831012525 | 76 | 35 | 5.0 | 10.0 | 0.00 | 0.00 | 0.00 | 74 | 1012.4 |
| 20260831012019 | 76 | 34 | 6.0 | 10.0 | 0.00 | 0.00 | 0.00 | 74 | 1012.5 |
| 20260831011519 | 77 | 36 | 6.0 | 11.0 | 0.00 | 0.00 | 0.00 | 73 | 1012.5 |
| 20260831011052 | 77 | 38 | 7.0 | 11.0 | 0.00 | 0.00 | 0.00 | 72 | 1012.5 |
| 20260831010525 | 78 | 35 | 5.0 | 11.0 | 0.00 | 0.00 | 0.00 | 71 | 1012.6 |
| 20260831010045 | 77 | 34 | 5.0 | 10.0 | 0.00 | 0.00 | 0.00 | 71 | 1012.6 |
| 20260831005516 | 78 | 38 | 6.0 | 10.0 | 0.00 | 0.00 | 0.00 | 71 | 1012.6 |
| 20260831005030 | 78 | 35 | 5.0 | 9.0 | 0.00 | 0.00 | 0.00 | 70 | 1012.6 |
| 20260831004551 | 78 | 36 | 5.0 | 9.0 | 0.00 | 0.00 | 0.00 | 70 | 1012.5 |
| 20260831004023 | 78 | 35 | 6.0 | 9.0 | 0.00 | 0.00 | 0.00 | 69 | 1012.6 |
| 20260831003517 | 79 | 35 | 6.0 | 11.0 | 0.00 | 0.00 | 0.00 | 69 | 1012.6 |
| 20260831003039 | 78 | 35 | 7.0 | 11.0 | 0.00 | 0.00 | 0.00 | 69 | 1012.6 |
| 20260831002553 | 78 | 34 | 7.0 | 11.0 | 0.00 | 0.00 | 0.00 | 69 | 1012.6 |
| 20260831002106 | 79 | 32 | 7.0 | 11.0 | 0.00 | 0.00 | 0.00 | 69 | 1012.6 |
| 20260831002023 | 79 | 32 | 7.0 | 11.0 | 0.00 | 0.00 | 0.00 | 69 | 1012.6 |
| 20260831001606 | 79 | 35 | 6.0 | 11.0 | 0.00 | 0.00 | 0.00 | 70 | 1012.6 |
| 20260831001038 | 79 | 34 | 6.0 | 11.0 | 0.00 | 0.00 | 0.00 | 69 | 1012.6 |
| 20260831000551 | 78 | 35 | 8.0 | 11.0 | 0.00 | 0.00 | 0.00 | 71 | 1012.6 |
| 20260831000031 | 79 | 36 | 9.0 | 11.0 | 0.00 | 0.00 | 0.00 | 68 | 1012.5 |
| 20260830235604 | 79 | 36 | 7.0 | 11.0 | 0.00 | 0.00 | 0.00 | 69 | 1012.5 |
| 20260830235522 | 79 | 36 | 7.0 | 11.0 | 0.00 | 0.00 | 0.00 | 69 | 1012.5 |
| 20260830235016 | 79 | 34 | 4.0 | 12.0 | 0.00 | 0.00 | 0.00 | 66 | 1012.5 |
| 20260830234558 | 80 | 37 | 6.0 | 10.0 | 0.00 | 0.00 | 0.00 | 66 | 1012.5 |
| 20260830234516 | 80 | 37 | 6.0 | 10.0 | 0.00 | 0.00 | 0.00 | 66 | 1012.5 |
| 20260830234049 | 80 | 32 | 6.0 | 10.0 | 0.00 | 0.00 | 0.00 | 64 | 1012.5 |
| 20260830233522 | 80 | 34 | 6.0 | 10.0 | 0.00 | 0.00 | 0.00 | 63 | 1012.5 |
| 20260830233115 | 79 | 35 | 7.0 | 11.0 | 0.00 | 0.00 | 0.00 | 65 | 1012.5 |
| 20260830232545 | 80 | 36 | 7.0 | 12.0 | 0.00 | 0.00 | 0.00 | 66 | 1012.5 |
| 20260830232016 | 79 | 36 | 8.0 | 12.0 | 0.00 | 0.00 | 0.00 | 65 | 1012.5 |